FW0009 Weather Reports


time (UTC)temp
C
wind
direction
speed
KPH
gust
KPH
rain 1hr
cm
rain 24hr
cm
rain mn
cm
humidity
%
barometer
mb
20260504044503 9 355 3.2 12.9 0.00 0.00 0.00 43 1014.7
20260504043103 9 345 6.4 11.3 0.00 0.00 0.00 43 1014.6
20260504041603 10 335 4.8 17.7 0.00 0.00 0.00 41 1014.5
20260504040006 10 355 6.4 11.3 0.00 0.00 0.00 39 1014.3
20260504034615 11 339 6.4 12.9 0.00 0.00 0.00 39 1014.1
20260504033002 11 5 6.4 14.5 0.00 0.00 0.00 39 1013.6
20260504031503 11 342 4.8 17.7 0.00 0.00 0.00 39 1013.4
20260504024506 12 346 6.4 12.9 0.00 0.00 0.00 40 1012.9
20260504023103 12 336 4.8 12.9 0.00 0.00 0.00 39 1012.9
20260504021603 12 325 8.0 14.5 0.00 0.00 0.00 39 1012.8
20260504020003 12 348 8.0 17.7 0.00 0.00 0.00 39 1012.6
20260504014619 12 326 11.3 19.3 0.00 0.00 0.00 38 1012.4
20260504013002 13 333 8.0 22.5 0.00 0.00 0.00 38 1012.1
20260504011503 13 344 8.0 17.7 0.00 0.00 0.00 38 1011.9
20260504010104 13 15 8.0 17.7 0.00 0.00 0.00 38 1011.8
20260504004502 13 288 8.0 17.7 0.00 0.00 0.00 38 1011.5
20260504003104 14 338 8.0 17.7 0.00 0.00 0.00 38 1011.5
20260504001623 14 9 11.3 19.3 0.00 0.00 0.00 36 1011.1
20260504000003 15 342 11.3 22.5 0.00 0.00 0.00 36 1011.1
20260503234603 15 19 11.3 24.1 0.00 0.00 0.00 37 1010.9
20260503233003 15 341 9.7 19.3 0.00 0.00 0.00 36 1010.6
20260503224502 16 48 6.4 19.3 0.00 0.00 0.00 33 1010.0
20260503223102 16 360 11.3 20.9 0.00 0.00 0.00 33 1010.1
20260503221602 16 350 8.0 19.3 0.00 0.00 0.00 33 1010.0
20260503220010 16 339 9.7 19.3 0.00 0.00 0.00 33 1010.0
20260503214602 16 240 8.0 20.9 0.00 0.00 0.00 33 1009.9
20260503213008 16 284 8.0 30.6 0.00 0.00 0.00 33 1010.1
20260503211502 16 288 8.0 19.3 0.00 0.00 0.00 33 1010.0
20260503210105 16 5 8.0 24.1 0.00 0.00 0.00 34 1009.8
20260503204504 16 5 9.7 19.3 0.00 0.00 0.00 34 1009.7
20260503203105 16 317 8.0 25.7 0.00 0.00 0.00 34 1009.6
20260503201603 16 22 8.0 20.9 0.00 0.00 0.00 34 1009.6
20260503200003 16 26 8.0 22.5 0.00 0.00 0.00 32 1009.5
20260503194604 17 281 9.7 17.7 0.00 0.00 0.00 31 1009.2
20260503193003 17 304 6.4 17.7 0.00 0.00 0.00 32 1009.0
20260503191609 18 296 6.4 19.3 0.00 0.00 0.00 32 1009.2
20260503190003 18 5 8.0 20.9 0.00 0.00 0.00 32 1009.3
20260503184611 18 310 6.4 16.1 0.00 0.00 0.00 31 1009.3
20260503183004 18 289 11.3 19.3 0.00 0.00 0.00 30 1009.2
20260503174502 18 22 6.4 16.1 0.00 0.00 0.00 31 1009.5
20260503173106 18 277 8.0 19.3 0.00 0.00 0.00 32 1009.3
20260503171604 17 321 8.0 17.7 0.00 0.00 0.00 32 1009.4
20260503160104 16 261 8.0 16.1 0.00 0.00 0.00 39 1009.4
20260503090106 10 239 0.0 6.4 0.00 0.00 0.00 46 1009.6
20260503081630 11 202 0.0 6.4 0.00 0.00 0.00 45 1009.8
20260503071507 11 235 0.0 1.6 0.00 0.00 0.00 43 1010.2
20260503070109 12 235 0.0 3.2 0.00 0.00 0.00 43 1010.2
20260503054605 13 221 0.0 3.2 0.00 0.00 0.00 38 1010.0
20260503053002 14 221 1.6 6.4 0.00 0.00 0.00 38 1009.9